www.pogodaiklimat.ru

Погода и климат >> Архив погоды >> Буркина-Фасо >> Дори


ПОГОДА в Дори

  • Прогноз погоды в Дори
  • Монитор погоды в Дори

АРХИВ ПОГОДЫ в Дори

Время (UTC), дата Ветер
(напр.,м/с)
 
Видим.   Явления Облачность Т
(С)
Тd
(С)
f
(%)
Тe
(С)
Тes
(С)
Комфортность P
(гПа)
Po
(гПа)
Тmin
(С)
Tmax
(С)
R
(мм)
R24
(мм)
S
(см)
06 13.06 штиль 0 10 км 9/0
[Ci sp]
+27.2 +21.0 69 +34 +34 очень
душно
1012.4 981.6 +27.1
09 13.06 Ю 1 20 км 9/0
[Ci sp]
+33.2 +19.2 44 +39 +50 очень
душно
1013.4 982.8
12 13.06 ЮВ 1 10 км 9/0
[Ac trans Ci sp]
+37.2 +18.4 33 +41 +61 опасность
перегрева
1011.3 980.9
15 13.06 В 3 10 км 9/1 800 м
[Sc Ac trans Ci sp]
+39.7 +16.9 26 +42 +47 опасность
перегрева
1009.4 979.1
18 13.06 В 1 10 км 9/0
[Ac trans Ci sp]
+38.1 +16.8 29 +41 +41 опасность
перегрева
1008.3 977.9 +40.5
21 13.06 ЮВ 1 10 км 9/0
[Ci sp]
+35.0 +18.7 38 +39 +39 очень
душно
1008.7 978.4
00 14.06 штиль 0 10 км 9/0
[Ci sp]
+33.0 +19.6 45 +39 +39 очень
душно
1010.8 980.6
03 14.06 штиль 0 10 км 9/0
[Ci sp]
+31.2 +19.2 49 +37 +37 очень
душно
1009.6 979.4
06 14.06 ЮЗ 3 10 км 9/0
[Ci sp]
+29.1 +21.3 63 +37 +37 очень
душно
1012.0 981.6 +29.0
09 14.06 ЮЗ 3 10 км 9/0
[Ci sp]
+32.7 +20.9 50 +40 +48 очень
душно
1012.2 981.7
12 14.06 штиль 0 20 км 9/0
[Ci sp]
+37.8 +19.2 34 +43 +66 опасность
перегрева
1010.6 980.4
15 14.06 Ю 1 20 км 9/1 800 м
[Cu Sc Ci sp]
+41.1 +16.6 24 +43 +53 опасность
перегрева
1007.7 977.7
18 14.06 штиль 0 10 км 9/1 800 м
[Cb cap Ac trans Ci sp]
+36.2 +18.6 36 +41 +41 опасность
перегрева
1007.7 977.3 +42.4
21 14.06 Ю 1 10 км в посл. час гроза {дождь} 9/0
[Ac trans Ci sp]
+31.6 +20.0 50 +38 +38 очень
душно
1010.2 979.7
00 15.06 штиль 0 10 км 9/0
[Ci sp]
+29.6 +21.7 63 +38 +38 очень
душно
1010.2 979.8 1
03 15.06 штиль 0 10 км 9/0
[Ci sp]
+28.8 +22.4 68 +38 +38 очень
душно
1008.6 978.4
06 15.06 штиль 0 10 км 9/0
[Ac trans Ci sp]
+27.8 +22.0 71 +36 +36 очень
душно
1010.3 979.7 +27.6 1
09 15.06 Ю 2 20 км 9/0
[Ac trans Ci sp]
+32.3 +23.1 58 +42 +51 опасность
перегрева
1011.4 980.8
12 15.06 Ю 2 10 км 9/0
[Ci sp]
+37.2 +22.1 42 +46 +63 опасность
перегрева
1010.0 979.6
15 15.06 Ю 2 10 км 9/0
[Ci sp]
+40.5 +19.7 30 +45 +55 опасность
перегрева
1008.5 978.3
18 15.06 ЮЗ 1 10 км 9/0
[Ac trans Ci sp]
+39.2 +18.8 31 +43 +44 опасность
перегрева
1008.2 977.8 +41.8
21 15.06 ЮЗ 2 10 км 9/0
[Ci sp]
+36.4 +17.9 34 +40 +40 очень
душно
1009.4 979.1
00 16.06 ЮЗ 3 10 км зарница 9/1 1200 м
[Cb cap Ci sp]
+33.7 +20.2 45 +40 +40 очень
душно
1009.7 979.6
03 16.06 С 2 10 км зарница {гроза} 9/1 1200 м
[Cb cap Ci sp]
+31.0 +19.3 50 +37 +37 очень
душно
1009.1 979.0
06 16.06 ЮЗ 3 10 км 9/0
[Ci sp]
+30.0 +21.2 59 +38 +38 очень
душно
1010.2 979.9 +30.0
09 16.06 ЮЗ 2 10 км 9/0
[Ci sp]
+33.5 +22.2 52 +43 +52 опасность
перегрева
1010.8 980.6
12 16.06 Ю 2 20 км 9/0
[Ci sp]
+37.1 +20.7 39 +44 +61 опасность
перегрева
1010.6 980.4
15 16.06 Ю 1 20 км 9/1 800 м
[Cu Sc Ci sp]
+40.3 +19.4 30 +45 +55 опасность
перегрева
1008.7 978.6
18 16.06 штиль 0 20 км 9/1 800 м
[Cu Sc Ci sp]
+39.1 +18.7 31 +43 +43 опасность
перегрева
1008.0 977.8 +41.4
21 16.06 Ю 3 2000 м зарница 9/1 1200 м
[Cb cap Ac trans Ci sp]
+31.0 +18.6 48 +36 +36 очень
душно
1011.8 981.1
00 17.06 Ю 1 10 км 9/0
[Ac trans Ci sp]
+28.8 +20.1 59 +35 +35 очень
душно
1010.5 980.0
03 17.06 штиль 0 10 км 9/0
[Ci sp]
+27.8 +19.1 59 +33 +33 очень
душно
1008.8 978.5
06 17.06 Ю 1 10 км 9/0
[Ci sp]
+28.1 +19.7 60 +34 +34 очень
душно
1010.9 980.5 +27.5
09 17.06 Ю 2 6000 м пыль 9/0
[Ci sp]
+32.0 +20.9 52 +39 +49 очень
душно
1012.7 982.0
12 17.06 ЮЗ 3 10 км 9/0
[Ci sp]
+36.2 +19.4 37 +41 +56 опасность
перегрева
1011.7 981.2
15 17.06 С 2 10 км 9/0
[Ci sp]
+38.4 +19.7 34 +44 +53 опасность
перегрева
1008.9 978.5
18 17.06 С 1 10 км 9/0
[Ci sp]
+38.5 +19.8 34 +44 +44 опасность
перегрева
1008.8 978.4 +39.8
21 17.06 ЮЗ 1 10 км 9/0
[Ci sp]
+35.5 +20.5 42 +42 +42 опасность
перегрева
1009.9 979.5
00 18.06 ЮЗ 1 10 км 9/0
[Ci sp]
+33.5 +17.7 39 +37 +37 очень
душно
1010.8 980.5
03 18.06 ЮЗ 1 10 км 9/0
[Ci sp]
+31.4 +18.7 47 +36 +36 очень
душно
1010.5 980.3
06 18.06 ЮЗ 2 10 км 9/0
[Ci sp]
+29.5 +20.8 60 +37 +37 очень
душно
1011.4 981.1 +29.5
09 18.06 ЮЗ 3 10 км 9/0
[Ci sp]
+33.5 +21.5 50 +42 +50 опасность
перегрева
1011.7 981.4
12 18.06 Ю 1 10 км 9/0
[Ci sp]
+39.1 +19.3 32 +44 +65 опасность
перегрева
1011.1 981.0
15 18.06 штиль 0 20 км 9/1 800 м
[Sc Ci sp]
+40.8 +15.0 22 +42 +53 опасность
перегрева
1008.9 978.8
18 18.06 штиль 0 20 км 9/0
[Ci sp]
+39.5 +15.2 24 +41 +41 опасность
перегрева
1008.5 978.3 +41.8
21 18.06 штиль 0 10 км 9/0
[Ci sp]
+36.4 +16.4 31 +39 +39 очень
душно
1010.7 980.4
00 19.06 штиль 0 6000 м зарница {дождь} 9/1 1200 м
[Cb cap Ac As Ci sp]
+29.4 +20.3 58 +36 +36 очень
душно
1012.3 981.9 2
03 19.06 штиль 0 10 км 9/0
[Ac trans Ci sp]
+30.2 +21.4 59 +38 +38 очень
душно
1008.4 978.2
06 19.06 штиль 0 6000 м 9/0
[Ac trans Ci sp]
+30.4 +21.2 58 +38 +38 очень
душно
1010.8 980.6 +29.2 2
09 19.06 Ю 3 20 км 9/0
[Ac trans Ci sp]
+34.5 +21.7 47 +42 +49 опасность
перегрева
1011.9 981.7
12 19.06 Ю 3 10 км 9/0
[Ci sp]
+36.7 +20.6 39 +43 +57 опасность
перегрева
1011.2 980.7
15 19.06 Ю 3 10 км 9/0
[Ac trans Ci sp]
+37.4 +20.6 38 +44 +50 опасность
перегрева
1009.8 979.4
21 19.06 ЮЗ 2 10 км 9/0
[Ci sp]
+35.0 +20.4 43 +42 +42 опасность
перегрева
1009.2 979.0
00 20.06 ЮЗ 2 10 км 9/0
[Ci sp]
+33.5 +20.4 46 +40 +40 очень
душно
1009.4 979.2
03 20.06 ЮЗ 1 10 км 9/0
[Ci sp]
+31.6 +20.7 52 +39 +39 очень
душно
1008.4 978.2

 

Местоположение метеостанции Дори (Буркина-Фасо): широта 14.03 долгота -0.03 высота над уровнем моря 277 м.

В архиве по умолчанию представлена погода в Дори за последнюю неделю. Архивные данные за месяц целиком и за предыдущие месяцы, начиная с января 2011 года, Вы можете получить, выбрав интересующий диапазон дат из раскрывающегося списка и нажав кнопку "Ввод!".


*Определитесь, кто Вы:
робот инопланетянин человек

Внимание! Время в таблицах - всемирное. Для получения местного времени необходимо прибавить поправку, которая равна 0 ч.

Смотрите также архив погоды в соседних городах и на ближайших метеорологических станциях:

Погода в Тиллабери (Нигер) (161 км)
Погода в Фада-Нгурме (Буркина-Фасо) (227 км)
Погода в Ниамее (Нигер) (245 км)
Погода в Уагадугу (Буркина-Фасо) (247 км)
Погода в Вахигуе (Буркина-Фасо) (263 км)
Погода в По (Буркина-Фасо) (343 км)
Погода в Дапаоне (Того) (354 км)
Погода в Навронго (Гана) (367 км)
Погода в Досо (Нигер) (367 км)
Погода в Боромо (Буркина-Фасо) (404 км)

Пояснения к столбцам:

Ветер - указаны скорость ветра в м/с - средняя за 10 мин, порывы в срок и между сроками (в фигурных скобках) и направление, откуда дует ветер: С - северный, СВ - северо-восточный, В - восточный, ЮВ - юго-восточный, Ю - южный, ЮЗ - юго-западный, З - западный, СЗ - северо-западный.
Видимость - горизонтальная дальность видимости в метрах или километрах. При видимости от 1 до 10 км при отсутствии осадков обычно наблюдается дымка, при ухудшении видимости до 1 км и менее - туман. В сухую погоду видимость может ухудшаться дымом, пылью или мглою.
Явления - указаны атмосферные явления, наблюдавшиеся в срок или в последний час перед сроком; фигурными скобками обозначены явления, наблюдавшиеся между сроками (за 1-3 часа до срока); квадратными скобками обозначены град или гололедные отложения с указанием их диаметра в мм.
Облачность - указаны через наклонную черту общая и нижняя облачность в баллах и высота нижней границы облаков в метрах; квадратными скобками обозначены формы облаков: Ci - перистые, Cs - перисто-слоистые, Cc - перисто-кучевые, Ac - высококучевые, As - высокослоистые, Sc - слоисто-кучевые, Ns - слоисто-дождевые, Cu - кучевые, Cb - кучево-дождевые. Подробнее классификацию облаков см. в Атласе облаков (PDF).
T - Температура воздуха - температура, измеренная на высоте 2 м над землей.
Td - Температура точки росы - температура, при понижении до которой содержащийся в воздухе водяной пар достигнет насыщения.
f - Относительная влажность воздуха - влажноcть воздуха, измеренная на высоте 2 м над землей.
Te - Эффективная температура - температура, которую ощущает одетый по сезону человек в тени. Характеристика душности погоды. При расчете учитывается влияние влажности воздуха и скорости ветра на теплоощущения человека.
Tes - Эффективная температура на солнце - температура, которую ощущает человек, с поправкой на солнечный нагрев. Характеристика знойности погоды. Зависит от высоты солнца над горизонтом, облачности и скорости ветра. Ночью, в пасмурную погоду, а также при ветре 12 м/с и более поправка равна нулю.
P - Атмосферное давление - приведенное к уровню моря атмосферное давление.
Po - Атмосферное давление - измеренное на уровне метеостанции атмосферное давление.
Tmin - Минимальная температура - минимум температуры воздуха на высоте 2 м над землей.
Tmax - Максимальная температура - максимум температуры воздуха на высоте 2 м над землей.
R - Количество осадков - Количество выпавших осадков за период времени, мм. При наведении курсора мыши на число - период времени, за который выпало указанное количество осадков.
R24 - Количество осадков - Количество выпавших осадков за 24 часа, мм.
S - Снежный покров - Высота снежного покрова, см. При наведении курсора мыши на число - состояние снежного покрова и степень покрытия местности в баллах.